HADYOS Weather Reports


time (UTC)temp
C
wind
direction
speed
KPH
gust
KPH
rain 1hr
cm
rain 24hr
cm
rain mn
cm
humidity
%
barometer
mb
20260508141805 26 344 8.0 17.7 0.00 0.00 0.00 46 1014.9
20260508141114 27 323 4.8 16.1 0.00 0.00 0.00 46 1014.9
20260508140005 27 339 6.4 17.7 0.00 0.00 0.00 45 1015.0
20260508135403 27 338 6.4 17.7 0.00 0.00 0.00 45 1015.0
20260508134503 27 331 4.8 16.1 0.00 0.00 0.00 45 1014.9
20260508133605 27 326 6.4 16.1 0.00 0.00 0.00 43 1015.0
20260508132705 28 336 6.4 12.9 0.00 0.00 0.00 41 1015.0
20260508131803 29 333 3.2 16.1 0.00 0.00 0.00 36 1015.2
20260508130903 29 27 1.6 9.7 0.00 0.00 0.00 25 1015.3
20260508130005 29 327 1.6 8.0 0.00 0.00 0.00 25 1015.4
20260508125403 28 347 3.2 11.3 0.00 0.00 0.00 25 1015.4
20260508124503 29 9 4.8 14.5 0.00 0.00 0.00 25 1015.5
20260508123818 30 46 1.6 8.0 0.00 0.00 0.00 24 1015.6
20260508122703 30 19 1.6 6.4 0.00 0.00 0.00 25 1015.8
20260508121804 29 5 0.0 4.8 0.00 0.00 0.00 26 1015.8
20260508120905 28 7 1.6 8.0 0.00 0.00 0.00 27 1016.0
20260508120004 28 11 3.2 11.3 0.00 0.00 0.00 27 1016.2
20260508115614 28 15 3.2 9.7 0.00 0.00 0.00 27 1016.2
20260508114717 28 27 3.2 8.0 0.00 0.00 0.00 27 1016.4
20260508113605 28 20 1.6 11.3 0.00 0.00 0.00 29 1016.5
20260508112705 27 97 1.6 4.8 0.00 0.00 0.00 29 1016.6
20260508111805 27 12 1.6 8.0 0.00 0.00 0.00 29 1016.7
20260508110903 27 10 3.2 11.3 0.00 0.00 0.00 30 1016.8
20260508110004 27 40 1.6 9.7 0.00 0.00 0.00 29 1016.8
20260508105405 27 74 1.6 11.3 0.00 0.00 0.00 30 1016.8
20260508104717 27 42 1.6 11.3 0.00 0.00 0.00 30 1016.9
20260508103603 27 26 3.2 12.9 0.00 0.00 0.00 31 1016.9
20260508102705 27 56 1.6 12.9 0.00 0.00 0.00 31 1017.1
20260508101803 26 53 1.6 11.3 0.00 0.00 0.00 33 1017.2
20260508100905 26 84 1.6 8.0 0.00 0.00 0.00 34 1017.2
20260508100214 26 48 1.6 11.3 0.00 0.00 0.00 33 1017.2
20260508095403 26 92 1.6 6.4 0.00 0.00 0.00 36 1017.3
20260508094505 25 34 3.2 9.7 0.00 0.00 0.00 37 1017.4
20260508093605 25 35 3.2 8.0 0.00 0.00 0.00 38 1017.4
20260508092706 25 85 1.6 11.3 0.00 0.00 0.00 38 1017.6
20260508091804 25 20 4.8 11.3 0.00 0.00 0.00 35 1017.6
20260508091117 26 22 3.2 8.0 0.00 0.00 0.00 33 1017.8
20260508090215 25 18 3.2 9.7 0.00 0.00 0.00 31 1017.8
20260508085405 25 38 3.2 8.0 0.00 0.00 0.00 31 1017.9
20260508084504 25 42 1.6 8.0 0.00 0.00 0.00 32 1017.9
20260508083605 24 18 1.6 8.0 0.00 0.00 0.00 33 1018.1
20260508082705 24 45 0.0 6.4 0.00 0.00 0.00 38 1018.2
20260508081804 23 35 1.6 6.4 0.00 0.00 0.00 39 1018.3
20260508080905 23 20 1.6 9.7 0.00 0.00 0.00 42 1018.3
20260508080004 23 28 1.6 8.0 0.00 0.00 0.00 43 1018.4
20260508075405 22 35 0.0 8.0 0.00 0.00 0.00 44 1018.5
20260508074504 22 25 0.0 6.4 0.00 0.00 0.00 46 1018.4
20260508073605 21 14 0.0 6.4 0.00 0.00 0.00 47 1018.5
20260508072705 21 14 1.6 8.0 0.00 0.00 0.00 47 1018.4
20260508071805 21 24 0.0 6.4 0.00 0.00 0.00 48 1018.4
20260508070905 20 19 0.0 6.4 0.00 0.00 0.00 48 1018.1
20260508070004 20 32 1.6 8.0 0.00 0.00 0.00 48 1018.3
20260508065405 20 47 1.6 8.0 0.00 0.00 0.00 48 1018.4
20260508064504 20 63 0.0 8.0 0.00 0.00 0.00 47 1018.5
20260508063603 20 75 1.6 8.0 0.00 0.00 0.00 48 1018.5
20260508062915 20 70 1.6 8.0 0.00 0.00 0.00 47 1018.5
20260508062017 20 46 1.6 8.0 0.00 0.00 0.00 46 1018.5
20260508060913 20 70 1.6 11.3 0.00 0.00 0.00 45 1018.4
20260508060004 20 30 1.6 8.0 0.00 0.00 0.00 44 1018.5
20260508055403 20 37 1.6 8.0 0.00 0.00 0.00 44 1018.5
20260508054505 20 42 1.6 8.0 0.00 0.00 0.00 42 1018.4
20260508053603 20 48 1.6 6.4 0.00 0.00 0.00 42 1018.3
20260508052705 20 30 3.2 8.0 0.00 0.00 0.00 43 1018.4
20260508051803 20 47 1.6 11.3 0.00 0.00 0.00 43 1018.3
20260508050905 19 8 1.6 8.0 0.00 0.00 0.00 43 1018.2
20260508050004 19 338 1.6 8.0 0.00 0.00 0.00 43 1018.1
20260508045405 19 331 1.6 8.0 0.00 0.00 0.00 41 1017.9
20260508044504 18 309 0.0 4.8 0.00 0.00 0.00 41 1018.1
20260508043603 18 345 0.0 3.2 0.00 0.00 0.00 42 1017.8
20260508042705 18 344 0.0 3.2 0.00 0.00 0.00 42 1017.9
20260508041803 17 0 0.0 0.0 0.00 0.00 0.00 43 1018.0
20260508040905 17 288 0.0 1.6 0.00 0.00 0.00 44 1017.8
20260508040005 17 0 0.0 0.0 0.00 0.00 0.00 45 1017.9
20260508035405 16 0 0.0 0.0 0.00 0.00 0.00 46 1017.9
20260508034505 16 267 0.0 1.6 0.00 0.00 0.00 46 1017.8
20260508033604 16 267 0.0 1.6 0.00 0.00 0.00 48 1017.8
20260508032705 15 269 0.0 3.2 0.00 0.00 0.00 48 1017.8
20260508031803 15 269 0.0 3.2 0.00 0.00 0.00 48 1017.7
20260508031116 15 0 0.0 0.0 0.00 0.00 0.00 48 1017.7
20260508030213 15 0 0.0 0.0 0.00 0.00 0.00 47 1017.7
20260508025404 15 0 0.0 0.0 0.00 0.00 0.00 47 1017.6
20260508024717 15 0 0.0 0.0 0.00 0.00 0.00 47 1017.6
20260508023815 15 0 0.0 0.0 0.00 0.00 0.00 48 1017.2
20260508022705 15 271 0.0 3.2 0.00 0.00 0.00 49 1017.0
20260508021805 15 266 0.0 3.2 0.00 0.00 0.00 49 1017.0
20260508020903 15 268 0.0 4.8 0.00 0.00 0.00 49 1017.1
20260508020006 15 271 1.6 6.4 0.00 0.00 0.00 50 1017.0
20260508015405 15 270 1.6 6.4 0.00 0.00 0.00 50 1017.1
20260508014504 15 269 1.6 8.0 0.00 0.00 0.00 51 1017.0
20260508013605 15 272 0.0 6.4 0.00 0.00 0.00 53 1017.0
20260508012703 15 274 0.0 6.4 0.00 0.00 0.00 53 1017.2
20260508011804 15 270 0.0 6.4 0.00 0.00 0.00 52 1017.3
20260508011117 15 274 1.6 8.0 0.00 0.00 0.00 51 1017.3
20260508010006 15 276 0.0 4.8 0.00 0.00 0.00 51 1017.4
20260508005403 15 273 1.6 4.8 0.00 0.00 0.00 52 1017.5
20260508004505 15 279 1.6 6.4 0.00 0.00 0.00 52 1017.4
20260508003603 15 269 0.0 3.2 0.00 0.00 0.00 52 1017.5
20260508002704 15 272 0.0 6.4 0.00 0.00 0.00 53 1017.6
20260508002016 15 275 1.6 8.0 0.00 0.00 0.00 54 1017.6
20260508001113 15 284 1.6 8.0 0.00 0.00 0.00 56 1017.6
20260508000005 15 270 1.6 9.7 0.00 0.00 0.00 54 1017.7
20260507235405 15 266 1.6 12.9 0.00 0.00 0.00 53 1017.6
20260507234505 15 291 0.0 6.4 0.00 0.00 0.00 55 1017.6
20260507233603 15 274 3.2 11.3 0.00 0.00 0.00 58 1017.6
20260507232705 15 138 0.0 6.4 0.00 0.00 0.00 60 1017.7
20260507231805 15 113 0.0 8.0 0.00 0.00 0.00 62 1017.6
20260507230904 15 106 1.6 11.3 0.00 0.00 0.00 62 1017.6
20260507230006 15 115 1.6 8.0 0.00 0.00 0.00 62 1017.8
20260507225405 15 107 1.6 11.3 0.00 0.00 0.00 62 1017.8
20260507224505 15 56 1.6 11.3 0.00 0.00 0.00 62 1017.7
20260507223603 15 113 1.6 8.0 0.00 0.00 0.00 60 1017.9
20260507222705 16 22 1.6 8.0 0.00 0.00 0.00 58 1017.9
20260507221804 16 85 1.6 12.9 0.00 0.00 0.00 55 1017.9
20260507220903 16 52 0.0 11.3 0.00 0.00 0.00 54 1017.9
20260507220005 16 35 0.0 11.3 0.00 0.00 0.00 52 1017.9
20260507215403 16 72 0.0 6.4 0.00 0.00 0.00 49 1017.9
20260507214504 16 286 1.6 12.9 0.00 0.00 0.00 46 1018.0
20260507213606 16 239 0.0 4.8 0.00 0.00 0.00 46 1017.9
20260507212703 16 355 0.0 1.6 0.00 0.00 0.00 46 1017.9
20260507212018 16 12 0.0 3.2 0.00 0.00 0.00 46 1017.9
20260507211115 16 42 0.0 3.2 0.00 0.00 0.00 47 1017.8
20260507210007 16 306 0.0 1.6 0.00 0.00 0.00 48 1017.8
20260507205403 16 0 0.0 0.0 0.00 0.00 0.00 49 1017.8
20260507204505 16 0 0.0 0.0 0.00 0.00 0.00 49 1017.7
20260507203603 16 0 0.0 0.0 0.00 0.00 0.00 49 1017.6
20260507202705 16 314 0.0 1.6 0.00 0.00 0.00 50 1017.7
20260507201803 16 288 0.0 6.4 0.00 0.00 0.00 50 1017.6
20260507200905 16 284 0.0 6.4 0.00 0.00 0.00 50 1017.4
20260507200004 16 0 0.0 0.0 0.00 0.00 0.00 51 1017.5
20260507195405 16 220 0.0 6.4 0.00 0.00 0.00 50 1017.5
20260507194503 17 145 0.0 8.0 0.00 0.00 0.00 50 1017.6
20260507193605 17 246 0.0 3.2 0.00 0.00 0.00 50 1017.6
20260507192703 17 241 0.0 4.8 0.00 0.00 0.00 50 1017.6
20260507191803 17 352 0.0 8.0 0.00 0.00 0.00 51 1017.5
20260507190905 17 111 0.0 11.3 0.00 0.00 0.00 52 1017.5
20260507190006 17 60 0.0 4.8 0.00 0.00 0.00 53 1017.6
20260507185406 17 28 0.0 4.8 0.00 0.00 0.00 53 1017.6
20260507184503 17 327 0.0 9.7 0.00 0.00 0.00 54 1017.6
20260507183815 17 333 1.6 9.7 0.00 0.00 0.00 54 1017.6
20260507182917 17 337 1.6 11.3 0.00 0.00 0.00 54 1017.5
20260507182014 17 320 4.8 14.5 0.00 0.00 0.00 54 1017.5
20260507181117 17 328 3.2 14.5 0.00 0.00 0.00 56 1017.4
20260507180004 17 312 4.8 14.5 0.00 0.00 0.00 56 1017.3
20260507175403 17 304 3.2 14.5 0.00 0.00 0.00 56 1017.3
20260507174505 17 294 3.2 11.3 0.00 0.00 0.00 57 1017.2
20260507173815 17 304 3.2 12.9 0.00 0.00 0.00 57 1017.2
20260507172913 17 314 4.8 14.5 0.00 0.00 0.00 57 1017.0
20260507172015 17 324 6.4 16.1 0.00 0.00 0.00 58 1016.9
20260507171112 17 324 8.0 20.9 0.00 0.00 0.00 59 1016.9
20260507170004 18 308 8.0 17.7 0.00 0.00 0.00 59 1016.9
20260507165403 18 323 4.8 16.1 0.00 0.00 0.00 60 1016.8
20260507164503 18 337 6.4 20.9 0.00 0.00 0.00 60 1016.7
20260507163605 18 317 8.0 19.3 0.00 0.00 0.00 60 1016.5
20260507162704 18 316 6.4 19.3 0.00 0.00 0.00 60 1016.4
20260507161803 18 323 4.8 17.7 0.00 0.00 0.00 60 1016.4
20260507160903 19 336 6.4 16.1 0.00 0.00 0.00 59 1016.4
20260507160004 20 1 3.2 16.1 0.00 0.00 0.00 59 1016.3
20260507155403 20 340 6.4 14.5 0.00 0.00 0.00 58 1016.3
20260507154503 20 329 8.0 20.9 0.00 0.00 0.00 57 1016.2
20260507153603 20 340 6.4 17.7 0.00 0.00 0.00 56 1016.2
20260507152703 21 315 6.4 17.7 0.00 0.00 0.00 55 1016.2
20260507152016 21 322 6.4 19.3 0.00 0.00 0.00 55 1016.3
20260507151113 21 331 6.4 17.7 0.00 0.00 0.00 55 1016.3
20260507150216 21 329 8.0 17.7 0.00 0.00 0.00 53 1016.3
20260507145403 22 326 6.4 19.3 0.00 0.00 0.00 53 1016.2
20260507144503 22 327 6.4 24.1 0.00 0.00 0.00 53 1016.2
20260507143603 22 327 8.0 17.7 0.00 0.00 0.00 52 1016.3
20260507142703 22 330 8.0 20.9 0.00 0.00 0.00 51 1016.2